This demonstration page uses our WeatherBlox Daily Observations layout. Learn more.

38.89511, -77.03637

Hourly Observations for April 2, 2017

Temp ( °F °C ) Dew Point ( °F °C ) Humidity (%) Winds ( mph kmh ) Pressure ( in mb ) Visibility ( mi km ) Precip ( " mm )
12:52 am 00:52 Cloudy 50 10 37 2.8 61 61 NW 18 30 30.15 1021 10 16.09344 0 0
1:52 am 01:52 Cloudy 50 10 37 2.8 61 61 NNW 14 22 30.15 1021 10 16.09344 0 0
2:52 am 02:52 Mostly Cloudy 48 8.9 36 2.2 63 63 NNW 14 22 30.15 1021 10 16.09344 0 0
3:52 am 03:52 Clear 47 8.3 35 1.7 63 63 NW 13 20 30.15 1021 10 16.09344 0 0
4:52 am 04:52 Clear 46 7.8 34 1.1 63 63 NNW 15 24 30.15 1021 10 16.09344 0 0
5:52 am 05:52 Clear 45 7.2 34 1.1 66 66 NW 9 15 30.18 1022 10 16.09344 0 0
6:52 am 06:52 Sunny 44 6.7 34 1.1 68 68 NNW 8 13 30.18 1022 10 16.09344 0 0
7:52 am 07:52 Sunny 46 7.8 34 1.1 63 63 NNW 9 15 30.21 1023 10 16.09344 0 0
8:52 am 08:52 Sunny 49 9.4 35 1.7 59 59 NW 6 9 30.24 1024 10 16.09344 0 0
9:52 am 09:52 Sunny 52 11.1 35 1.7 53 53 NNW 10 17 30.24 1024 10 16.09344 0 0
10:52 am 10:52 Mostly Sunny 55 12.8 36 2.2 49 49 NNW 9 15 30.24 1024 10 16.09344 0 0
11:52 am 11:52 Sunny 59 15 34 1.1 39 39 N 8 13 30.21 1023 10 16.09344 0 0
12:52 pm 12:52 Partly Cloudy 60 15.6 33 0.6 36 36 Calm 30.21 1023 10 16.09344 0 0
1:52 pm 13:52 Mostly Cloudy 62 16.7 33 0.6 34 34 N 3 6 30.18 1022 10 16.09344 0 0
2:52 pm 14:52 Mostly Cloudy 64 17.8 35 1.7 34 34 NE 9 15 30.15 1021 10 16.09344 0 0
3:52 pm 15:52 Partly Cloudy 65 18.3 33 0.6 31 31 W 7 11 30.15 1021 10 16.09344 0 0
4:52 pm 16:52 Partly Cloudy 65 18.3 34 1.1 32 32 WNW 10 17 30.12 1020 10 16.09344 0 0
5:52 pm 17:52 Partly Cloudy 65 18.3 32 0 29 29 NNW 10 17 30.12 1020 10 16.09344 0 0
6:52 pm 18:52 Mostly Cloudy 63 17.2 32 0 31 31 NW 8 13 30.12 1020 10 16.09344 0 0
7:52 pm 19:52 Mostly Cloudy 61 16.1 31 -0.6 32 32 W 6 9 30.12 1020 10 16.09344 0 0
8:52 pm 20:52 Mostly Cloudy 62 16.7 30 -1.1 30 30 WNW 3 6 30.12 1020 10 16.09344 0 0
9:52 pm 21:52 Mostly Cloudy 55 12.8 40 4.4 57 57 S 5 7 30.15 1021 10 16.09344 0 0
10:52 pm 22:52 Mostly Cloudy 55 12.8 45 7.2 69 69 S 3 6 30.12 1020 10 16.09344 0 0
11:52 pm 23:52 Mostly Cloudy 54 12.2 39 3.9 57 57 SSW 3 6 30.12 1020 10 16.09344 0 0

Powered by AerisWeather